Other Public Products
Issued by NWS Grand Forks, ND

Home | Current Version | Previous Version | Graphics & Text | Print | Product List | Glossary On
Versions: 1 2 3 4 5 6 7 8 9 10 11 12 13 14 15 16 17 18 19 20 21 22 23 24 25 26 27 28 29 30 31 32 33 34 35 36 37 38 39 40 41 42 43 44 45 46 47 48 49 50
000
FPUS83 KFGF 251110
OPUFGF
PRAIRIE TO PINES WEATHER ROUNDUP
NATIONAL WEATHER SERVICE EASTERN NORTH DAKOTA/GRAND FORKS ND
600 AM CDT THU MAY 25 2017

 **SATELLITE DATA USED TO AUGMENT SKY COVER AT AUTOMATED STATIONS**
 *****  WEATHER ACROSS EASTERN NORTH DAKOTA  *****

CITY           SKY/WX    TMP DP  RH WIND       PRES   REMARKS
GRAND FORKS    MOCLDY    50  43  77 SE13      29.56F
GRAND FORKS AF FAIR      49  42  77 SE8       29.56F
GRAND CITY NWS NOT AVBL
BUXTON         NOT AVBL
DEVILS LAKE    MOCLDY    51  44  77 SE17      29.48S
FARGO          FAIR      51  43  74 SE16      29.57F
WAHPETON ARPT  FAIR      48  41  76 SE14      29.61F
$$

 *****  WEATHER ACROSS CENTRAL AND WESTERN NORTH DAKOTA  *****

CITY           SKY/WX    TMP DP  RH WIND       PRES   REMARKS
JAMESTOWN      MOCLDY    50  43  77 SE22G30   29.45S
BISMARCK       FAIR      51  46  83 S7        29.42R
MINOT          FAIR      51  49  92 SE7       29.38S
MINOT AFB      FAIR      51  50  96 S10       29.37F
GARRISON         N/A     50  48  93 S13       29.39R
WILLISTON      FAIR      48  46  93 S5        29.36F
DICKINSON      FOG       40  40 100 W5        29.40R VSB<1/4
HETTINGER      FAIR      41  40  96 W5        29.44R FOG
$$

 *****  OTHER OBSERVATIONS NORTHEAST NORTH DAKOTA  *****

CITY           SKY/WX    TMP DP  RH WIND       PRES   REMARKS
WALHALLA       NOT AVBL
LANGDON        FAIR      50  45  81 SE23G30   29.51F
CAVALIER       FAIR      48  41  76 SE9       29.55S
GRAFTON        FAIR      46  43  87 SE13      29.58F
CANDO          NOT AVBL
FORT TOTTEN      N/A     51  43  75 S15       29.95S
ROLLA          CLOUDY    48  46  93 S22G28    29.44F
RUGBY          NOT AVBL
 ***** THE ABOVE OBSERVATIONS ARE NON NWS ARE NOT QUALITY
        CONTROLLED AND MAY MIS-REPORT RAIN FOR SNOW...
$$

 *****  OTHER OBSERVATIONS SOUTHEAST NORTH DAKOTA *****

CITY           SKY/WX    TMP DP  RH WIND       PRES   REMARKS
COOPERSTOWN    FAIR      50  45  81 SE21G31   29.48F
VALLEY CITY    PTSUNNY   50  48  93 SE22G31   29.48F
OAKES          NOT AVBL
GWINNER        SUNNY     48  45  87 MISG      29.51F FOG
SHEYENNE NWR     N/A     49  46  88 SE13      29.95S
BUFFALO        NOT AVBL
WYNDMERE         N/A     48  45  87 SE14        N/A
 ***** THE ABOVE OBSERVATIONS ARE NON NWS ARE NOT QUALITY
       CONTROLLED AND MAY MIS-REPORT RAIN FOR SNOW...
$$

  *****  WEATHER ACROSS NORTHERN MINNESOTA  *****

CITY           SKY/WX    TMP DP  RH WIND       PRES   REMARKS
FLAG ISLAND    FAIR      52  43  71 SE16      29.67S
WARROAD        FAIR      46  43  87 SE10      29.67S
ROSEAU         FAIR      46  43  87 SE9       29.65S
HALLOCK        FAIR      48  43  81 SE14      29.58S
THF RVR FALLS  FAIR      47  42  83 SE14      29.63F
HALSTAD          N/A     47  43  86 SE14        N/A
FOSSTON        FAIR      45  41  87 SE6       29.64F
BAUDETTE       FAIR      42  39  89 SE9       29.70R
WASKISH        FAIR      41  39  93 E5        29.70S
CROOKSTON      FAIR      48  43  81 SE14      29.60F
$$
  *****  WEATHER ACROSS CENTRAL AND WEST MINNESOTA  *****

CITY           SKY/WX    TMP DP  RH WIND       PRES   REMARKS
BEMIDJI        FAIR      44  43  95 E9        29.66F
PARK RAPIDS    FAIR      47  42  83 SE7       29.66F
WADENA         FAIR      45  43  93 E7        29.66F
DETROIT LAKES  FAIR      46  43  87 SE9       29.65S
MOORHEAD       FAIR      50  43  76 SE14      29.59F
FERGUS FALLS   FAIR      48  43  81 SE13      29.62F
ELBOW LAKE     FAIR      48  43  82 SE10      29.64F
MORRIS MN      FAIR      46  45  93 SE9       29.64R
STAPLES        FAIR      45  43  93 E3        29.68R
WHEATON        FAIR      46  43  87 SE12      29.63F
$$
  *****  WEATHER ELSEWHERE ACROSS MINNESOTA  *****

CITY           SKY/WX    TMP DP  RH WIND       PRES   REMARKS
DULUTH         FAIR      42  41  96 E8        29.74S
INTRNTL FALLS  FAIR      43  38  82 E9        29.73R
ELY            FAIR      32  32 100 CALM      29.76R
CLOQUET        FAIR      39  37  93 E5        29.74R FOG
BRAINERD       FAIR      47  45  93 CALM      29.70R
HIBBING        FAIR      32  31  96 CALM      29.73S
ALEXANDRIA     FAIR      46  43  89 SE6       29.68R
SAINT CLOUD    FAIR      47  46  97 E5        29.70R
MINNEAPOLIS    FAIR      50  46  86 SE3       29.71R
$$

  *****  WEATHER ACROSS SOUTH DAKOTA  *****

CITY           SKY/WX    TMP DP  RH WIND       PRES   REMARKS
SIOUX FALLS    FAIR      51  46  83 SE13G21   29.58F
BROOKINGS      FAIR      49  45  86 S9        29.60R
WATERTOWN      MOCLDY    49  44  83 SE15      29.57R
HURON          FAIR      52  44  74 SE17      29.50S
SISSETON         N/A     44  43  96 SE9       29.58F
ABERDEEN       FAIR      51  44  77 SE16      29.48F
MITCHELL       FAIR      53  44  71 S14G26    29.53R
PIERRE         FAIR      52  43  71 SE15G25   29.34R
MOBRIDGE       FAIR      51  43  74 SE16      29.34F
RAPID CITY     FAIR      50  41  71 N9        29.45S
$$

  *****  SOME WEATHER IN NEARBY STATES *****

CITY           SKY/WX    TMP DP  RH WIND       PRES   REMARKS
GLASGOW MT     CLOUDY    51  38  60 W22G33    29.31S
GREAT FALLS MT LGT RAIN  41  38  89 SW12      29.60R
CHEYENNE WY    FAIR      53  41  63 W13       29.62F
SCOTTSBLUFF NE FAIR      54  46  74 SW3       29.53S
OMAHA NE       FAIR      50  45  83 SE7       29.65S
DES MOINES IA  FAIR      46  44  93 CALM      29.70R
DAVENPORT IA   MOCLDY    51  48  89 N8        29.66R
CHICAGO IL     FAIR      54  50  86 N12       29.56R
EAU CLAIRE WI  FAIR      50  49  96 NE3       29.70F
LA CROSSE WI   FOG       46  45  96 CALM      29.70R VSB 1/4
$$

  *****  SOME NATIONAL WEATHER *****

CITY           SKY/WX    TMP DP  RH WIND       PRES   REMARKS
LA GUARDIA NY  LGT RAIN  57  54  89 NE14      29.71F
RALEIGH NC     FAIR      61  60  97 S5        29.55R
ATLANTA GA     MOCLDY    56  53  90 W12       29.68R
NEW ORLEANS LA FAIR      58  56  93 SW6       29.84R
OKLAHOMA CITY  FAIR      55  46  71 SE15G23   29.67F
ALBUQUERQUE NM MOCLDY    69  22  16 VRB6      29.82R
SALT LAKE CITY FAIR      59  40  49 N24       29.70R
LOS ANGELES CA CLOUDY    59  51  75 SW6       29.85S
BOISE ID       FAIR      45  31  58 W3        29.74R
SEATTLE WA     FAIR      49  45  86 SE3       29.92S
$$

*** WEATHER ACROSS MANITOBA...SASKATCHEWAN AND ONTARIO ***
                ***ONTARIO***

CITY           SKY/WX    TMP DP  RH WIND       PRES   REMARKS
GERALDTON      CLEAR     41  37  87 N2        29.82F
THUNDER BAY    CLEAR     36  36 100 W3        29.79S
SIOUX LOOKOUT  CLEAR     45  32  61 SE5       29.77R
TORONTO        LGT RAIN  55  54  94 E15G22    29.58S FOG
BIG TROUT LK   CLEAR     43  32  65 SE3       29.76S
PICKLE LAKE    PTCLDY    45  30  57 S6        29.80
DRYDEN         CLEAR     46  37  71 E5        29.75S
KENORA         MOCLDY    46  39  76 SE8       29.71R
$$
                *** MANITOBA***

CITY           SKY/WX    TMP DP  RH WIND       PRES   REMARKS
BRANDON        LGT RAIN  50  46  87 SE20      29.41F
DAUPHIN        CLOUDY    54  48  82 S10G17    29.39S
ISLAND LAKE    PTCLDY    50  36  57 SE6       29.65S
PILOT MOUND      N/A     50  41  71 SE23G30     N/A
THE PAS        CLOUDY    55  48  76 SE6       29.38S
THOMPSON       MOCLDY    50  37  62 E3        29.55S
WINNIPEG       MOCLDY    52  41  66 SE16G22   29.56F
LYNN LAKE      CLEAR     50  39  66 E7        29.47S
CHURCHILL      MOCLDY    41  41 100 E7        29.62R
GILLAM         MOCLDY    43  37  81 S3        29.62R
$$
                ***SASKATCHEWAN***

CITY           SKY/WX    TMP DP  RH WIND       PRES   REMARKS
ESTEVAN        PTCLDY    48  46  93 S8        29.31F
KINDERSLEY     MOCLDY    46  43  87 N26G36    29.19R
LLOYDMINSTER   LGT RAIN  48  48 100 N16G22    29.36R
PRINCE ALBERT  MOCLDY    48  45  87 E8G17     29.26R
REGINA         PTCLDY    37  30  75 SE10      29.23F
YORKTON          N/A     50  48  93 S14G20    29.28S



USA.gov is the U.S. government's official web portal to all federal, state and local government web resources and services.